Probability
3 2 3 5 9 10 10 8 5 1 1 1 1 0 0 0 0 0 0 0 1 1 0 0 0 0 0 0 0 0 0 1 1 1 0 0 0 0 0 0 0 0 0
3 3 3 4 7 10 10 9 6 2 1 1 0 0 0 0 0 0 0 1 2 2 1 0 0 0 1 1 1 1 1 2 2 2 1 0 0 0 0 0 0 0 0
4 4 3 3 5 9 10 9 7 4 2 2 1 1 2 1 0 0 0 1 1 1 1 0 0 1 2 2 2 2 2 3 3 3 2 1 0 0 0 0 0 0 0
4 4 3 4 5 8 10 11 9 7 4 3 3 3 2 1 0 0 0 0 1 1 1 0 0 1 2 3 3 3 3 3 3 3 3 2 1 0 0 0 0 0 0
5 5 5 6 7 8 11 12 11 9 7 5 4 4 2 1 0 0 0 0 0 1 0 0 0 1 1 2 2 2 2 3 3 3 3 2 1 1 1 1 0 0 0
6 7 8 8 9 10 12 13 12 11 10 8 6 5 3 2 1 0 0 0 0 0 0 0 0 0 0 1 1 1 1 1 2 2 2 1 1 2 2 2 1 0 0
8 9 10 9 9 11 13 14 14 13 13 11 8 6 4 3 2 1 0 0 0 0 0 0 0 0 0 0 0 0 0 0 1 2 1 1 2 3 3 2 1 0 0
9 10 12 11 11 12 14 16 15 14 13 11 8 7 5 5 4 1 0 0 0 0 0 0 0 0 0 0 0 0 0 1 2 2 2 1 1 2 2 1 1 0 0
12 13 13 12 12 12 14 16 15 12 10 10 10 9 7 6 5 2 1 0 1 1 1 1 0 0 0 0 0 1 1 2 3 3 3 2 1 1 1 1 1 0 0
13 14 13 11 10 11 13 15 14 10 8 9 11 11 9 7 5 4 2 1 2 2 1 0 0 0 0 0 0 1 2 3 3 3 3 3 3 2 1 1 1 0 0
14 14 14 12 11 12 14 16 15 11 9 9 11 14 12 9 7 6 4 2 2 2 1 1 1 0 0 0 1 2 3 3 3 3 4 4 4 3 2 1 1 0 0
15 16 17 17 16 15 15 17 17 15 11 10 12 16 15 12 9 7 5 4 3 3 2 2 2 1 1 2 4 4 4 4 4 4 5 5 5 5 3 1 1 0 0
17 18 18 19 19 17 17 19 20 19 17 14 15 17 17 14 11 8 7 6 5 5 5 4 4 3 4 6 7 7 6 6 6 6 6 6 6 6 5 3 2 1 1
18 18 18 18 18 18 19 21 23 24 25 22 20 21 21 18 15 12 11 9 8 8 8 6 6 6 7 8 9 9 8 7 6 6 5 5 5 5 5 4 3 2 2
19 18 18 18 18 17 19 21 22 25 28 27 26 27 28 27 23 19 14 10 9 10 10 8 8 8 8 8 8 8 8 7 5 4 4 4 4 4 3 3 2 2 3
20 20 21 20 19 19 20 21 23 26 29 30 30 34 37 37 31 23 15 10 9 10 11 10 9 9 8 6 4 5 6 6 4 3 3 3 3 3 3 1 0 1 2
23 23 25 23 21 23 25 26 28 30 33 34 34 38 41 42 37 29 20 14 12 12 12 12 10 8 6 3 2 1 3 3 3 3 3 3 2 2 2 1 1 1 2
25 26 27 26 25 28 31 32 34 36 39 39 37 38 42 42 40 35 27 20 17 15 14 12 10 7 4 2 1 0 1 1 2 3 3 3 1 1 2 2 2 3 3
27 27 28 28 29 32 35 37 39 41 42 41 38 39 40 41 40 37 29 23 20 17 14 12 9 6 4 2 1 1 0 0 1 2 2 2 1 1 1 2 2 3 3
30 29 30 30 32 36 39 42 42 43 43 40 38 38 37 36 36 35 29 25 22 19 15 12 8 5 3 2 2 1 1 1 1 1 1 1 1 0 0 1 1 1 2
33 32 32 32 34 40 44 45 45 44 42 39 37 37 35 32 31 32 30 26 23 19 16 11 7 4 2 1 1 1 1 1 0 0 0 0 0 0 0 0 0 0 1
33 32 32 33 35 39 43 45 45 43 40 38 36 35 34 32 30 28 26 22 20 18 14 11 7 4 2 1 0 0 1 1 0 0 0 0 0 0 0 0 0 0 0
32 32 33 34 34 36 38 40 41 39 37 34 32 31 30 29 28 25 21 18 17 17 14 10 7 5 4 3 1 0 0 0 0 0 0 0 0 0 0 0 0 0 0
31 32 33 33 33 33 33 33 33 34 33 31 28 26 25 25 24 21 17 15 14 14 13 11 8 6 5 4 2 1 0 0 0 0 0 0 0 0 0 0 0 0 0
28 31 32 31 30 30 29 29 29 29 30 29 26 24 22 21 20 17 14 10 8 8 10 10 9 7 5 4 3 1 0 0 0 0 0 0 0 0 0 0 0 0 0
25 29 32 31 28 27 28 28 28 27 28 28 26 23 20 19 17 14 10 6 4 3 5 7 8 8 6 3 1 1 0 0 0 0 0 0 0 0 0 0 0 0 0
Wind_Speed
7 5 6 7 6 6 6 6 6 5 4 3 2 2 2 2 2 2 3 3 4 4 4 3 3 3 3 3 3 2 2 2 1 0 2 2 2 3 3 4 4 5 6
5 6 6 7 8 8 7 7 7 6 5 4 3 2 2 1 2 2 2 3 4 4 4 4 3 4 3 3 3 3 2 1 2 2 0 2 3 2 2 2 4 4 4
10 8 8 8 8 8 9 8 8 6 6 5 2 2 1 1 0 1 1 2 3 4 4 4 4 4 4 3 4 4 4 2 2 2 3 2 2 2 2 2 2 3 3
10 9 9 9 9 10 8 7 7 6 5 5 4 4 3 3 3 2 2 2 2 3 3 3 4 3 3 3 4 4 3 3 3 2 3 3 2 2 2 2 2 2 4
12 11 11 11 9 8 8 7 7 6 5 6 6 5 3 3 1 1 1 1 1 2 3 3 3 3 3 4 3 3 4 4 4 3 2 3 2 3 3 4 3 2 2
11 11 9 8 7 7 7 7 7 7 6 6 6 5 5 4 3 2 2 2 1 1 2 3 3 3 3 3 3 3 4 4 4 3 3 3 3 3 4 5 4 3 3
11 10 10 10 9 9 9 8 8 7 7 7 7 6 6 6 5 4 3 3 2 2 2 2 2 2 3 3 3 3 3 4 4 4 4 4 4 3 3 3 3 3 2
10 11 11 10 10 10 9 9 9 8 7 7 7 6 6 4 4 4 4 3 3 3 2 2 2 3 3 3 2 2 3 3 4 5 4 3 4 4 4 3 3 3 3
9 10 9 10 9 9 9 9 9 8 7 8 7 6 6 5 5 4 3 3 3 2 2 2 2 2 2 2 2 2 3 2 3 4 4 3 3 3 4 3 4 4 4
7 8 8 8 8 7 7 7 8 8 7 7 7 6 6 5 4 3 3 3 3 2 2 2 2 1 1 1 1 1 2 2 2 2 2 3 2 2 2 3 3 4 4
8 8 7 7 7 6 6 7 7 6 5 6 5 5 4 4 4 4 3 3 3 3 3 2 2 1 1 1 1 1 1 2 2 1 1 2 2 2 2 2 2 3 3
5 6 6 6 6 7 6 7 6 6 6 6 5 5 4 4 4 4 4 4 3 3 2 2 2 1 1 1 1 2 1 1 1 1 1 2 1 1 1 1 2 2 3
3 4 5 6 6 6 6 6 6 7 6 6 6 5 5 5 5 5 4 3 3 3 3 3 3 2 2 1 2 2 1 1 1 1 1 2 1 1 1 1 2 2 2
4 4 4 5 5 6 6 6 6 6 6 6 7 6 6 6 6 5 5 4 4 4 3 3 2 2 2 1 1 1 1 1 0 0 0 1 1 2 2 1 2 2 2
2 4 5 5 5 5 5 6 6 5 6 6 7 7 7 6 6 6 6 6 5 4 3 3 2 2 1 1 2 2 2 1 0 0 0 1 1 2 2 1 2 1 1
4 3 4 4 5 5 5 4 5 6 6 7 7 6 6 6 7 6 6 5 4 4 4 3 2 2 1 1 2 2 2 2 1 0 1 1 1 2 2 2 2 1 1
4 5 5 6 7 6 5 5 4 4 5 5 5 5 6 6 6 6 6 5 5 4 4 3 3 2 1 1 2 3 2 2 1 0 1 1 2 2 2 2 2 2 3
4 5 4 4 4 4 4 4 4 5 5 5 5 5 5 5 5 6 5 5 4 4 3 3 3 2 1 1 2 2 2 2 1 1 0 1 2 2 1 1 2 2 2
4 4 4 4 3 4 4 4 4 4 5 5 5 5 5 5 6 6 5 4 4 3 3 3 3 2 1 1 2 3 2 2 1 1 1 1 1 3 2 1 1 2 2
3 3 2 1 2 3 4 5 4 4 5 5 4 5 5 5 6 6 6 5 5 4 4 3 2 2 1 1 2 3 2 1 1 1 1 2 2 3 3 1 0 1 2
2 1 1 1 2 3 5 5 5 6 5 4 4 5 5 5 5 4 4 5 5 4 4 3 2 2 1 1 2 3 2 2 1 1 0 1 3 3 2 1 1 1 1
1 1 1 1 1 2 4 5 5 4 4 4 4 4 4 4 5 5 5 5 5 5 4 3 2 1 1 1 1 2 2 2 2 1 0 0 1 2 2 2 1 1 1
1 1 1 1 0 1 3 4 3 3 4 4 4 4 4 3 4 5 5 4 4 4 3 3 3 2 1 0 1 1 2 2 1 1 1 2 2 2 2 3 3 2 2
2 1 1 1 0 0 1 3 4 4 5 4 4 3 4 4 3 3 4 4 4 4 4 3 3 2 2 1 1 1 1 2 1 1 2 3 4 3 3 3 3 2 2
2 1 1 2 2 1 1 2 4 5 5 5 4 4 4 4 4 3 2 2 2 4 5 4 4 4 3 3 3 3 2 2 2 2 2 2 2 2 2 2 2 2 2
2 1 0 1 1 2 1 1 4 5 5 5 4 4 4 4 4 4 2 4 3 3 3 4 4 3 3 4 5 4 3 3 5 4 2 2 1 1 1 1 2 2 2
Wind_Direction
218 197 188 180 172 175 179 184 186 184 165 159 170 177 201 212 215 218 216 208 205 199 193 207 198 186 198 212 203 191 211 225 168 127 313 300 256 242 237 233 232 232 229
207 197 189 182 182 184 187 189 194 189 182 178 168 167 168 191 209 217 220 210 207 201 202 202 202 197 203 214 208 190 189 214 173 163 184 321 323 292 254 237 233 236 230
206 199 194 193 188 192 193 196 197 193 188 174 143 122 96 67 153 227 229 217 210 208 210 205 197 197 197 213 216 199 193 207 206 186 168 188 248 301 305 263 250 247 238
203 198 196 196 198 201 193 193 189 189 185 169 169 171 182 201 213 206 222 232 210 212 209 204 197 198 195 213 224 210 203 195 215 214 211 206 189 214 296 303 271 259 250
199 198 199 200 200 194 189 188 183 187 182 178 182 180 196 206 195 183 220 231 227 219 210 200 197 201 205 222 226 214 210 204 209 206 202 210 210 210 224 270 284 282 259
198 198 194 186 189 185 185 183 183 192 185 182 183 189 200 199 191 203 214 218 214 227 220 203 201 205 210 224 228 221 216 218 219 217 209 204 205 205 212 242 259 267 266
191 190 186 185 189 188 189 186 186 195 190 186 191 196 203 197 199 204 207 205 207 223 229 209 204 211 216 223 228 226 231 224 225 227 228 227 231 215 206 226 250 257 264
191 192 191 190 192 193 189 185 190 196 191 192 200 198 198 198 204 204 200 203 210 221 217 205 215 218 215 223 225 237 240 233 233 238 232 232 236 225 218 216 226 257 259
188 189 188 185 188 191 190 187 188 193 194 196 195 195 196 197 202 202 197 202 212 217 209 205 208 216 211 216 218 245 254 246 242 245 243 243 244 233 231 226 223 233 259
182 182 184 185 186 188 185 181 185 192 195 194 196 199 195 195 192 184 193 200 208 206 192 203 201 200 202 211 199 240 257 252 259 251 250 257 258 245 235 230 233 230 237
186 181 178 176 172 168 168 176 183 181 188 195 195 194 189 183 177 184 197 198 199 192 194 201 196 190 205 201 196 240 260 261 276 278 263 275 272 264 254 236 233 233 234
178 169 165 162 165 170 173 179 181 183 191 189 186 191 183 171 175 185 191 187 191 190 185 181 175 195 207 194 200 237 259 258 272 279 278 288 297 293 290 267 252 242 231
147 145 150 164 175 180 182 180 184 191 186 174 176 183 181 178 184 187 181 179 182 182 175 178 181 197 199 201 211 216 232 239 253 257 261 283 286 296 294 281 276 268 253
153 153 164 179 184 184 185 180 189 192 178 173 179 190 189 181 185 180 167 173 187 187 178 177 180 189 195 205 205 195 204 217 251 278 278 303 301 298 298 286 278 273 265
160 178 185 188 187 189 191 188 181 176 177 181 190 198 190 179 175 175 174 177 180 182 164 164 172 182 197 225 206 191 176 159 127 42 346 315 318 313 307 308 293 269 251
201 202 199 194 195 197 196 199 192 178 176 188 201 194 183 180 179 179 173 168 168 163 154 171 180 190 222 216 187 174 161 150 145 117 337 348 350 349 355 4 10 12 261
209 203 207 208 205 204 196 192 195 176 174 186 191 186 183 182 183 180 171 173 173 165 165 173 176 188 203 186 176 176 155 143 139 128 342 343 355 354 346 353 13 22 24
230 222 218 223 217 195 184 176 166 165 175 180 181 177 179 182 177 172 175 173 162 163 166 164 159 159 119 126 142 147 140 124 111 95 357 329 333 348 343 354 22 16 9
235 229 220 216 207 185 172 157 162 173 180 184 183 176 174 180 180 180 180 170 153 156 161 151 149 149 111 93 143 145 131 119 94 59 42 20 350 356 24 72 15 355 345
264 242 234 199 189 176 151 154 171 177 195 190 184 171 174 181 184 180 174 165 156 161 159 149 146 146 138 116 140 142 133 132 118 60 42 42 34 25 49 87 73 349 334
284 249 196 209 205 175 154 162 174 193 194 167 157 161 165 169 173 168 162 154 148 149 157 152 140 134 130 123 125 135 146 164 164 150 51 25 37 43 53 68 62 320 333
313 268 169 208 218 172 159 171 186 183 147 134 142 142 145 154 151 153 156 154 152 158 162 153 149 137 123 102 128 136 136 147 161 175 166 60 57 61 62 63 44 48 65
280 266 198 167 175 163 162 176 178 142 130 126 139 138 134 138 143 151 154 155 158 160 167 172 182 179 157 76 119 158 158 157 158 147 122 101 92 87 71 51 48 54 64
266 250 194 162 124 296 174 160 151 142 137 138 137 144 152 151 151 158 159 163 171 173 173 186 190 179 167 174 182 179 159 155 127 94 95 93 85 76 66 50 42 38 39
315 275 201 189 169 182 207 146 141 141 143 145 152 162 166 161 155 140 134 163 179 189 178 188 186 182 193 204 184 171 169 164 151 125 90 74 66 57 48 43 38 34 36
309 308 99 178 181 175 195 162 142 146 154 158 165 167 170 164 157 152 127 69 88 104 130 155 164 163 162 158 161 157 140 129 131 115 104 95 90 77 52 44 32 25 16